sat.trackr.live / text

‹ back to catalog

PUJIANG 2 (PJ-2)

NORAD 52151 · 2022-031B

PAYLOAD ACTIVE UNKNOWN

§ Identity

Operator
Country
PRC
Launch date
2022-03-29
Launch site
TAISC
Launch vehicle
Mass (kg)
RCS (m²)

External: N2YO · Heavens-Above · Gunter

§ Orbital elements

Epoch: 2026-09-20T22:12:54.805248Z

Period
96.36 min
Inclination
97.8626°
Eccentricity
0.0010498
Mean motion
14.94399052 rev/d
Perigee alt
576.9 km
Apogee alt
591.5 km
Semi-major
6,962.4 km
B*
3.8093e-5
RAAN
89.5889°
Arg perigee
242.2711°
Mean anomaly
117.7445°
Rev number
24,409

§ Raw data

PUJIANG 2 (PJ-2)1 52151U 22031B   26263.92563432  .00000352  00000+0  38093-4 0  99912 52151  97.8626  89.5889 0010498 242.2711 117.7445 14.94399052244096

JSON: /api/v1/satellites/52151 · /tle

For live sub-satellite position, see the globe view (requires WebGL).

§ Visibility from observer

Set your observer location to see the next 7 days of passes ≥ 10°. The values pass through the URL so the page stays shareable.

No JS? Fill the form by hand. The geolocation button needs JavaScript.